When you browse on this site, cookies collect data to enhance your experience and personalize the content and advertising you see.
Visit our Privacy Policy to learn more. By continuing to use the site, you agree to this use of cookies and data.

Hourly Weather Pinsk

Today, 16 July, Thursday

Time Temperature Precipitation Wind Pressure Humidity
00:00 +15°C° 0 mm 1 mps 747 mmHg 88%
01:00 +14°C° 0 mm 1 mps 747 mmHg 89%
02:00 +14°C° 0 mm 1 mps 747 mmHg 89%
03:00 +14°C° 0 mm 1 mps 747 mmHg 90%
04:00 +14°C° 0 mm 1 mps 747 mmHg 90%
05:00 +14°C° 0 mm 1 mps 747 mmHg 90%
06:00 +15°C° 0 mm 1 mps 747 mmHg 85%
07:00 +18°C° 0 mm 1 mps 747 mmHg 80%
08:00 +20°C° 0 mm 1 mps 747 mmHg 75%
09:00 +21°C° 0.1 mm 1 mps 747 mmHg 71%
10:00 +23°C° 0.1 mm 1 mps 747 mmHg 66%
11:00 +24°C° 0.1 mm 1 mps 747 mmHg 61%
12:00 +24°C° 0.1 mm 1 mps 747 mmHg 59%
13:00 +25°C° 0.1 mm 1 mps 747 mmHg 56%
14:00 +25°C° 0.1 mm 2 mps 746 mmHg 54%
15:00 +25°C° 0.1 mm 1 mps 746 mmHg 56%
16:00 +25°C° 0.1 mm 1 mps 746 mmHg 58%
17:00 +25°C° 0.1 mm 1 mps 745 mmHg 60%
18:00 +23°C° 0.1 mm 1 mps 746 mmHg 68%
19:00 +22°C° 0.1 mm 1 mps 746 mmHg 75%
20:00 +20°C° 0.1 mm 1 mps 746 mmHg 83%
21:00 +19°C° 0 mm 1 mps 746 mmHg 85%
22:00 +18°C° 0 mm 1 mps 746 mmHg 87%
23:00 +18°C° 0 mm 1 mps 746 mmHg 88%

Tomorrow, 17 July, Friday

Time Temperature Precipitation Wind Pressure Humidity
00:00 +16°C° 0.3 mm 1 mps 746 mmHg 90%
01:00 +16°C° 0.3 mm 2 mps 746 mmHg 91%
02:00 +16°C° 0.3 mm 2 mps 746 mmHg 92%
03:00 +15°C° 0.1 mm 1 mps 746 mmHg 93%
04:00 +15°C° 0.1 mm 1 mps 746 mmHg 94%
05:00 +15°C° 0.1 mm 1 mps 746 mmHg 94%
06:00 +18°C° 0 mm 1 mps 747 mmHg 90%
07:00 +19°C° 0 mm 1 mps 747 mmHg 86%
08:00 +20°C° 0 mm 1 mps 747 mmHg 82%
09:00 +22°C° 0.6 mm 1 mps 747 mmHg 77%
10:00 +23°C° 0.6 mm 1 mps 747 mmHg 72%
11:00 +24°C° 0.6 mm 1 mps 747 mmHg 67%
12:00 +25°C° 0.6 mm 1 mps 747 mmHg 64%
13:00 +25°C° 0.6 mm 1 mps 747 mmHg 62%
14:00 +26°C° 0.6 mm 1 mps 747 mmHg 59%
15:00 +26°C° 0.5 mm 1 mps 747 mmHg 61%
16:00 +26°C° 0.5 mm 1 mps 747 mmHg 64%
17:00 +25°C° 0.5 mm 1 mps 747 mmHg 67%
18:00 +24°C° 0.3 mm 2 mps 747 mmHg 72%
19:00 +21°C° 0.3 mm 2 mps 747 mmHg 78%
20:00 +20°C° 0.3 mm 2 mps 747 mmHg 83%
21:00 +19°C° 0 mm 2 mps 747 mmHg 84%
22:00 +18°C° 0 mm 2 mps 748 mmHg 86%
23:00 +18°C° 0 mm 2 mps 748 mmHg 87%

Day after tomorrow, 18 July, Saturday

Time Temperature Precipitation Wind Pressure Humidity
00:00 +17°C° 0 mm 2 mps 748 mmHg 89%
01:00 +17°C° 0 mm 2 mps 748 mmHg 90%
02:00 +16°C° 0 mm 2 mps 749 mmHg 92%
03:00 +16°C° 0 mm 2 mps 749 mmHg 93%
04:00 +16°C° 0 mm 2 mps 749 mmHg 93%
05:00 +16°C° 0 mm 2 mps 749 mmHg 94%
06:00 +18°C° 0 mm 2 mps 749 mmHg 91%
07:00 +19°C° 0 mm 2 mps 749 mmHg 87%
08:00 +20°C° 0 mm 2 mps 749 mmHg 84%
09:00 +23°C° 0.3 mm 2 mps 749 mmHg 77%
10:00 +25°C° 0.3 mm 3 mps 749 mmHg 71%
11:00 +26°C° 0.3 mm 3 mps 749 mmHg 64%
12:00 +27°C° 0.4 mm 3 mps 749 mmHg 63%
13:00 +27°C° 0.4 mm 3 mps 749 mmHg 62%
14:00 +27°C° 0.4 mm 3 mps 749 mmHg 61%
15:00 +27°C° 0.5 mm 3 mps 749 mmHg 64%
16:00 +27°C° 0.5 mm 3 mps 749 mmHg 68%
17:00 +26°C° 0.5 mm 3 mps 748 mmHg 71%
18:00 +25°C° 0.6 mm 2 mps 748 mmHg 75%
19:00 +24°C° 0.6 mm 2 mps 749 mmHg 79%
20:00 +21°C° 0.6 mm 2 mps 749 mmHg 83%
21:00 +20°C° 0.2 mm 2 mps 749 mmHg 84%
22:00 +20°C° 0.2 mm 2 mps 749 mmHg 86%
23:00 +19°C° 0.2 mm 2 mps 749 mmHg 87%

19 July, Sunday

Time Temperature Precipitation Wind Pressure Humidity
00:00 +19°C° 0 mm 2 mps 749 mmHg 89%
01:00 +18°C° 0 mm 2 mps 749 mmHg 90%
02:00 +18°C° 0 mm 2 mps 749 mmHg 91%
03:00 +17°C° 0 mm 2 mps 749 mmHg 91%
04:00 +17°C° 0 mm 2 mps 749 mmHg 92%
05:00 +18°C° 0 mm 1 mps 749 mmHg 92%
06:00 +18°C° 0 mm 2 mps 749 mmHg 89%
07:00 +20°C° 0 mm 2 mps 749 mmHg 86%
08:00 +21°C° 0 mm 2 mps 749 mmHg 82%
09:00 +24°C° 0.4 mm 2 mps 749 mmHg 76%
10:00 +25°C° 0.4 mm 2 mps 749 mmHg 70%
11:00 +26°C° 0.4 mm 2 mps 748 mmHg 65%
12:00 +27°C° 0 mm 2 mps 748 mmHg 62%
13:00 +27°C° 0 mm 2 mps 748 mmHg 59%
14:00 +28°C° 0 mm 2 mps 748 mmHg 56%
15:00 +28°C° 0.2 mm 2 mps 748 mmHg 59%
16:00 +27°C° 0.2 mm 3 mps 747 mmHg 62%
17:00 +27°C° 0.2 mm 3 mps 747 mmHg 66%
18:00 +25°C° 0.3 mm 3 mps 747 mmHg 72%
19:00 +24°C° 0.3 mm 3 mps 747 mmHg 78%
20:00 +21°C° 0.3 mm 3 mps 747 mmHg 84%
21:00 +20°C° 0.1 mm 2 mps 747 mmHg 86%
22:00 +19°C° 0.1 mm 2 mps 747 mmHg 87%
23:00 +18°C° 0.1 mm 2 mps 747 mmHg 89%

20 July, Monday

Time Temperature Precipitation Wind Pressure Humidity
00:00 +18°C° 0 mm 2 mps 747 mmHg 90%
01:00 +18°C° 0 mm 2 mps 747 mmHg 91%
02:00 +18°C° 0 mm 1 mps 747 mmHg 92%
03:00 +18°C° 0 mm 1 mps 747 mmHg 92%
04:00 +18°C° 0 mm 1 mps 747 mmHg 93%
05:00 +18°C° 0 mm 1 mps 747 mmHg 93%
06:00 +19°C° 0 mm 1 mps 747 mmHg 89%
07:00 +21°C° 0 mm 1 mps 747 mmHg 85%
08:00 +22°C° 0 mm 1 mps 747 mmHg 81%
09:00 +24°C° 0.3 mm 1 mps 747 mmHg 75%
10:00 +25°C° 0.3 mm 1 mps 746 mmHg 69%
11:00 +27°C° 0.3 mm 1 mps 746 mmHg 64%
12:00 +27°C° 0.2 mm 1 mps 746 mmHg 61%
13:00 +28°C° 0.2 mm 1 mps 746 mmHg 58%
14:00 +28°C° 0.2 mm 2 mps 746 mmHg 56%
15:00 +28°C° 0.8 mm 1 mps 745 mmHg 59%
16:00 +28°C° 0.8 mm 1 mps 745 mmHg 62%
17:00 +27°C° 0.8 mm 1 mps 745 mmHg 65%
18:00 +26°C° 0.3 mm 1 mps 745 mmHg 70%
19:00 +24°C° 0.3 mm 1 mps 745 mmHg 75%
20:00 +21°C° 0.3 mm 0 mps 745 mmHg 80%
21:00 +22°C° 0.1 mm 1 mps 745 mmHg 82%
22:00 +21°C° 0.1 mm 1 mps 745 mmHg 84%
23:00 +21°C° 0.1 mm 1 mps 745 mmHg 86%

21 July, Tuesday

Time Temperature Precipitation Wind Pressure Humidity
00:00 +20°C° 0.4 mm 1 mps 745 mmHg 88%
01:00 +20°C° 0.4 mm 1 mps 745 mmHg 90%
02:00 +19°C° 0.4 mm 1 mps 744 mmHg 91%
03:00 +19°C° 0.1 mm 1 mps 744 mmHg 92%
04:00 +18°C° 0.1 mm 2 mps 744 mmHg 93%
05:00 +18°C° 0.1 mm 2 mps 744 mmHg 94%
06:00 +19°C° 0.1 mm 2 mps 744 mmHg 91%
07:00 +20°C° 0.1 mm 2 mps 744 mmHg 89%
08:00 +23°C° 0.1 mm 2 mps 744 mmHg 86%
09:00 +23°C° 0.9 mm 2 mps 744 mmHg 82%
10:00 +24°C° 0.9 mm 2 mps 744 mmHg 79%
11:00 +25°C° 0.9 mm 2 mps 744 mmHg 75%
12:00 +25°C° 1 mm 3 mps 744 mmHg 74%
13:00 +26°C° 1 mm 3 mps 744 mmHg 74%
14:00 +26°C° 1 mm 4 mps 744 mmHg 73%
15:00 +25°C° 0.5 mm 5 mps 744 mmHg 74%
16:00 +25°C° 0.5 mm 5 mps 744 mmHg 76%
17:00 +23°C° 0.5 mm 6 mps 744 mmHg 78%
18:00 +22°C° 0 mm 5 mps 744 mmHg 81%
19:00 +20°C° 0 mm 5 mps 744 mmHg 84%
20:00 +19°C° 0 mm 4 mps 745 mmHg 87%
21:00 +18°C° 0 mm 4 mps 745 mmHg 88%
22:00 +17°C° 0 mm 4 mps 746 mmHg 88%
23:00 +15°C° 0 mm 4 mps 746 mmHg 89%
Show more